SL-16 DEB, 22408

Orbit data source: Space-Track

SL-16 DEB, 22408 is space debris in LEO originally from a launch on Fri, 25 Dec 1992 UTC launched from the Tyuratam Missile And Space Complex (TTMTR). Debris objects in space refer to the collection of defunct objects orbiting the Earth. Examples of debris include non-operational satellites, rocket bodies, and fragments generated from explosions, collisions, or faulty payload assembly.

Loading next visibility...
Identifier
22408, 1992-093CZ
Orbit
LEO
Country
Flag of CISCIS
Related business
Manufacturer
Unknown
Mission
Spacecraft
Bus & Motor
Unknown
Mass
Unknown
Launch date (UTC)
1992-12-25 (33 years ago)
Launch vehicle
Unknown
Launch site
Tyuratam Missile And Space Complex (TTMTR)
Object type
Payload
Rocket body
Debris
Shape & HBR
Unknown shape, 0.1 m
Radar Cross Section
Small (<0.1 m²)

Expand to show TLE details & history
Last TLE update: 5 hours ago

TLE from 5 hours ago
0 SL-16 DEB
1 22408U 92093CZ  26133.20249882  .00001142  00000-0  59629-3 0  9991
2 22408  71.0726 214.2462 0118318 100.1630 290.2144 14.12974587703140
Epoch: 2026-05-13T04:51Z
TLE epoch observation values (Epoch: 2026-05-13T04:51:35.898Z)
Latitude
27.43826°
Longitude
-79.41868°
Altitude
823.401 km
Speed
7.459 km/s
True Right ascension
14h 57m 47s
True Declination
27° 17' 57"
Sunlit
Object was in full shadow at epoch
Visualization orbit readout
Latitude
Unknown
Longitude
Unknown
Altitude
Unknown
Speed
Unknown
Apparent Right ascension
Unknown
Apparent Declination
Unknown
Sunlit
N/A
Visualization observer readout
Local Sidereal Time
18:41:07
Azimuth
Unknown
Elevation
Unknown
Doppler factor
Unknown
Orbital elements
Apogee altitude
932.618 km
Perigee altitude
761.642 km
Semi-major axis
7,225.267 km
Eccentricity
0.01183
Inclination
71.0726°
RAAN
214.2462°
Arg. of periapsis
100.163°
True anomaly
288.93566°
Mean anomaly
290.2144°
Eccentric anomaly
289.57567°
Mean motion
3.53397 °/min
Orbital period
101.87 mins
BSTAR
0.00059629
Loading maneuver chart data...
Computing Atmospheric mass density...
Loading historical data...
Loading historical data...
Loading historical data...
Loading historical data...
Loading historical data...
Loading historical data...
Loading historical data...

Documentation

Showing up to 5 results
|